Location: Casone le Fosse
(44.6547°N, 12.1103°E)
Time: 03:26:23
(UTC+00:00)

YAOGAN 1 - Pass Details

Date: 29 October 2020
Orbit: 618 x 620 km, 97.9° (Epoch: 01 December)

Event Time Altitude Azimuth Distance (km) Brightness Sun altitude
Rises 17:14:02 0° 146° (SE) 2,886 5.7 -12.9°
Reaches altitude 10° 17:16:18 10° 138° (SE) 1,984 4.8 -13.3°
Maximum altitude 17:20:19 39° 70° (ENE) 935 3.0 -14.0°
Drops below altitude 10° 17:24:22 10° 2° (N) 1,998 5.1 -14.8°
Sets 17:26:39 0° 355° (N) 2,909 6.0 -15.2°
